GEFSMW_500_meanwind_204.txt.gz
Wind_Speed
11 11 11 13 14 14 14 13 13 12 12 12 12 11 10 10 9 8 6 5 3 2 1 1 2 2 3 4 5 6 6 7 7 7 8 8 9 9 8 8 8 9 9
9 10 10 10 11 12 12 12 11 11 11 11 11 11 10 10 9 8 7 6 5 4 3 1 1 2 3 4 5 6 6 7 8 8 8 8 9 9 10 10 10 10 10
7 8 8 9 9 9 10 10 10 10 10 10 10 10 9 9 8 8 7 7 6 4 3 2 1 1 2 4 5 6 7 8 8 8 8 8 8 9 10 11 11 11 12
8 7 7 7 8 8 8 9 9 9 9 9 9 8 8 8 8 8 7 7 6 6 4 3 2 2 3 4 4 5 6 7 8 9 9 9 9 9 10 11 11 12 12
9 8 7 6 6 6 6 7 8 8 8 8 7 7 7 7 7 7 7 6 6 6 6 5 3 2 3 4 4 5 5 6 7 8 9 9 10 10 10 11 11 12 12
9 9 8 5 5 6 5 5 6 6 6 7 7 7 6 6 7 6 6 6 6 6 6 6 5 4 4 4 5 5 6 7 8 9 10 11 11 11 11 11 11 12 13
11 10 8 6 5 5 6 5 5 5 6 6 6 6 6 5 6 5 5 5 6 6 6 6 6 6 5 5 6 6 6 7 8 9 9 11 12 12 12 12 12 12 13
12 11 10 8 7 7 6 5 5 5 5 6 6 6 6 5 5 5 5 6 6 6 6 7 7 7 7 7 7 7 7 7 8 9 10 10 10 11 12 12 12 12 13
14 13 11 10 9 8 8 7 7 6 6 6 6 6 6 6 6 6 6 7 7 7 7 8 8 8 9 8 8 8 8 8 8 9 10 10 10 10 11 12 12 12 13
14 14 13 11 10 9 9 10 10 9 8 8 8 8 8 7 7 6 7 7 7 7 8 8 9 9 9 9 9 9 8 8 9 10 11 11 11 12 12 12 12 13 14
17 17 15 14 12 11 11 12 12 11 10 10 10 10 10 9 9 8 9 9 9 9 9 9 10 10 10 10 9 9 9 10 10 11 12 12 12 13 13 14 14 15 15
19 16 16 17 16 14 14 14 13 13 13 12 12 13 13 12 12 11 11 10 10 10 11 11 12 12 13 12 12 11 11 12 13 13 13 13 13 14 14 15 16 16 17
22 20 19 19 19 19 18 17 16 16 15 15 15 15 15 14 14 14 14 14 13 13 12 13 13 14 14 14 14 14 14 14 14 14 14 14 15 16 16 17 17 18 19
27 25 23 22 22 21 19 20 20 20 19 19 18 18 17 17 16 17 17 17 16 15 15 15 15 16 16 16 17 17 16 16 16 16 16 16 17 17 18 19 20 20 21
28 28 25 24 24 22 22 21 22 21 22 22 21 20 20 20 18 19 20 19 18 17 17 17 18 18 18 18 18 19 18 19 19 18 18 18 19 20 20 21 21 22 22
29 28 28 27 26 25 24 23 23 23 25 25 23 23 22 22 21 22 22 22 21 21 21 20 20 20 20 20 20 20 20 21 21 20 20 20 21 22 22 23 23 24 24
30 31 30 29 28 27 26 26 24 24 26 27 26 26 25 24 24 25 24 24 24 24 24 23 23 22 22 22 22 23 22 22 22 22 22 22 22 23 24 24 24 25 25
33 33 32 31 31 30 29 29 28 27 27 28 28 27 27 27 27 26 26 26 25 25 25 26 25 25 25 26 26 24 24 25 24 24 24 23 24 25 25 25 26 26 26
36 36 34 33 33 33 32 33 33 32 30 30 30 29 29 30 29 29 29 29 28 28 28 28 28 27 27 28 28 27 27 26 26 25 24 25 25 26 26 26 26 27 27
37 36 36 36 36 36 36 35 35 34 33 33 32 31 31 31 32 32 31 31 31 31 31 30 30 30 30 30 29 28 28 27 26 26 26 26 27 27 27 27 28 28 28
37 37 37 38 37 37 38 38 37 37 37 35 33 34 34 34 35 35 34 34 34 34 33 33 32 33 33 32 31 30 29 28 28 28 28 29 29 28 28 29 29 29 29
40 41 39 38 39 40 40 39 38 39 39 38 36 36 36 36 36 36 36 35 35 35 35 34 33 34 34 34 32 30 29 30 29 29 29 30 30 30 30 30 30 30 31
42 40 39 39 39 40 41 41 40 40 39 37 37 37 37 37 36 36 36 37 36 36 36 35 34 33 33 32 31 29 29 29 30 30 31 31 31 31 31 32 32 32 32
42 40 40 40 39 39 39 39 38 38 37 36 37 36 36 36 36 35 36 36 36 36 35 36 35 35 33 32 31 30 30 30 30 31 31 32 31 32 33 33 33 34 34
42 42 42 41 41 40 39 38 38 38 37 37 37 37 37 37 37 37 37 37 35 35 35 35 35 34 34 34 33 32 32 32 33 33 32 33 33 34 33 34 34 35 35
42 42 41 41 40 39 38 38 39 39 38 38 38 38 38 37 37 37 37 36 36 36 35 34 34 34 35 34 34 34 34 35 35 34 34 34 34 34 35 34 34 34 34

GEFSMW_500_meanwind_210.txt.gz
Wind_Speed
11 12 12 13 13 12 11 10 10 10 9 9 8 8 8 7 6 5 4 3 1 1 2 3 3 4 4 5 6 7 7 8 8 8 8 8 9 9 9 9 10 10 11
9 10 11 11 11 10 10 10 8 9 8 7 7 7 7 7 7 6 5 4 2 1 1 2 3 4 5 6 6 7 7 7 8 9 9 9 10 10 10 10 10 11 10
6 7 9 10 9 9 8 8 7 7 7 6 6 6 6 6 6 5 4 4 3 3 3 3 4 5 6 6 6 7 8 8 9 10 10 10 10 11 11 11 11 11 11
7 7 8 9 8 8 7 6 6 5 5 5 5 5 4 4 4 4 4 4 3 3 3 4 4 4 6 6 6 6 7 8 9 10 10 11 11 11 11 12 12 12 12
8 8 8 8 8 7 7 6 5 5 4 5 4 3 3 3 3 3 3 3 3 3 3 4 5 5 5 5 6 7 7 8 8 8 9 11 12 12 12 13 13 13 13
9 9 9 9 8 7 7 6 6 6 5 4 5 4 4 4 4 4 3 3 3 4 4 4 5 5 5 5 6 7 7 7 8 8 9 10 12 12 12 13 13 14 14
12 10 10 11 10 9 9 9 8 7 6 6 5 5 6 5 5 5 5 5 5 5 5 5 6 6 7 6 7 7 8 8 8 9 10 11 11 12 13 13 14 14 14
13 12 12 13 12 11 12 11 10 9 8 7 7 7 7 6 6 6 7 7 7 7 7 7 8 8 8 8 8 8 8 9 9 10 11 11 12 12 13 14 15 14 14
13 13 13 14 14 14 13 13 12 12 11 10 9 9 8 9 9 8 8 8 8 8 9 9 10 10 10 10 9 10 10 10 11 11 12 13 13 13 14 15 15 16 16
15 15 15 16 16 15 15 14 14 14 14 13 13 11 11 11 11 11 10 10 10 10 11 11 11 11 11 12 12 12 12 13 13 14 14 15 15 14 14 15 15 15 15
16 17 18 18 17 17 17 16 17 16 16 16 15 14 14 14 14 14 14 13 12 13 13 14 13 13 13 13 14 15 15 15 15 15 15 16 16 16 16 17 16 16 16
18 18 19 20 19 19 18 18 19 20 19 18 18 17 18 19 18 17 16 16 15 15 15 16 15 15 15 15 16 16 16 17 17 17 17 17 16 16 17 17 17 17 18
21 21 22 22 22 22 21 21 21 21 20 21 20 19 20 21 21 21 20 19 18 18 18 18 18 18 18 18 18 18 18 18 18 18 19 19 19 19 19 18 19 19 20
23 23 24 23 23 23 23 23 24 24 23 22 21 21 21 22 24 24 23 23 21 21 20 20 20 20 21 21 21 21 21 20 20 20 21 21 21 20 20 19 19 20 21
25 25 25 26 26 26 25 25 25 24 23 23 23 23 23 23 24 25 25 24 23 22 22 21 21 22 22 23 23 24 23 23 23 23 23 23 22 22 22 22 22 22 22
27 27 27 27 28 28 27 26 25 26 26 26 26 26 27 26 26 26 26 26 25 24 23 23 24 24 24 25 25 25 25 25 25 25 25 24 24 24 24 24 24 24 24
28 28 28 28 29 30 30 29 28 28 28 29 29 28 29 28 28 27 27 27 27 26 26 26 26 26 25 25 26 26 27 27 27 27 27 27 26 26 26 26 26 26 26
30 31 31 31 31 32 31 31 31 31 30 30 30 30 30 30 30 29 29 30 30 30 30 29 28 28 28 28 27 28 28 28 28 27 28 28 29 29 29 29 29 29 29
34 34 34 34 34 34 33 33 33 32 31 31 30 30 31 31 32 32 32 32 32 32 32 32 31 30 30 31 30 30 29 29 28 28 29 30 30 31 32 32 32 32 32
35 37 37 37 36 36 34 34 34 33 33 33 33 32 32 32 32 34 34 34 33 33 33 33 33 33 32 32 32 32 31 30 30 30 31 32 33 33 34 33 32 32 33
37 38 39 39 38 37 37 37 36 35 35 35 34 34 34 34 35 35 35 35 34 35 34 34 34 34 33 33 33 34 33 32 31 32 33 34 35 35 35 34 33 32 33
39 39 39 40 40 40 40 40 38 36 35 36 37 37 37 38 38 37 36 37 36 36 35 35 35 36 36 35 34 35 35 35 34 34 34 34 35 35 35 34 34 34 34
40 40 40 40 41 41 40 40 38 38 38 38 38 39 38 39 39 38 37 36 36 37 37 37 36 37 37 36 36 36 36 35 35 35 35 35 35 34 34 34 34 34 34
40 41 42 41 41 41 41 41 40 40 40 40 39 38 38 38 38 38 37 37 37 38 38 37 37 38 37 37 37 36 36 36 35 35 35 34 35 34 34 34 33 34 34
40 41 41 41 41 42 42 42 42 42 41 41 41 39 39 37 37 36 37 38 38 39 38 37 38 38 37 37 37 36 36 35 35 35 35 35 35 35 35 35 35 36 36
39 40 40 41 40 40 41 41 42 42 41 40 40 39 38 37 37 38 38 38 38 37 38 37 36 37 37 37 37 37 36 36 36 36 36 36 36 36 36 37 37 37 37

GEFSMW_500_meanwind_216.txt.gz
Wind_Speed
9 9 9 10 10 10 10 9 9 8 7 6 4 4 3 4 4 3 2 2 1 1 1 1 2 2 3 5 6 6 7 7 8 8 8 9 9 9 10 9 9 9 9
8 8 8 8 9 9 9 9 8 7 6 6 5 3 3 2 2 2 1 1 0 0 1 1 2 3 3 5 6 7 8 8 8 8 8 9 10 10 11 11 10 10 10
6 6 6 7 7 8 7 7 7 7 6 5 5 4 3 2 1 1 0 1 1 1 2 2 2 3 3 3 5 5 7 8 8 8 8 9 10 11 11 12 11 11 11
7 7 6 7 7 7 7 6 7 7 6 5 4 4 3 2 2 2 2 2 2 3 3 2 3 3 4 4 4 5 6 7 8 9 9 9 10 11 12 12 12 12 12
8 8 7 7 7 7 7 7 7 7 6 5 4 4 3 3 3 3 3 3 3 4 4 4 4 5 5 5 5 5 6 8 8 9 10 10 10 11 12 12 12 13 13
10 10 9 9 9 8 8 8 8 8 8 7 6 5 5 5 5 4 4 5 5 5 5 5 6 6 6 6 7 7 7 8 8 9 9 10 11 11 11 12 13 13 14
14 13 12 11 11 11 10 10 10 9 8 7 8 8 7 7 7 7 7 7 7 7 7 7 7 8 9 9 9 9 9 9 10 10 11 11 12 13 13 14 15 15 15
16 15 14 14 13 13 13 13 12 11 10 9 10 10 9 10 9 10 10 9 9 9 9 9 9 10 10 10 10 10 11 11 11 11 11 12 13 13 14 15 15 15 15
17 17 17 16 15 15 15 15 14 13 12 12 12 12 12 12 12 12 12 12 12 12 11 11 11 11 11 11 11 11 12 12 12 12 13 13 14 14 14 15 15 16 16
18 19 19 18 17 17 16 16 16 14 14 14 15 14 15 15 14 14 15 15 15 14 14 14 14 14 13 13 13 13 13 13 13 14 14 14 15 16 16 16 17 17 18
19 19 18 18 18 19 19 19 19 19 19 17 17 18 17 17 17 17 17 17 17 17 17 17 17 16 16 16 15 15 15 15 15 16 16 17 17 17 17 18 18 19 19
19 20 20 21 21 20 20 20 20 21 22 21 20 20 20 20 21 21 20 20 19 18 19 20 19 19 19 19 18 18 17 17 17 17 18 18 19 19 19 19 19 19 19
21 21 21 21 22 23 23 22 22 23 23 23 22 23 23 23 24 24 23 22 22 20 20 21 22 21 21 21 21 20 20 19 19 19 19 20 20 20 20 20 20 20 20
22 22 22 23 23 24 25 24 24 24 25 25 24 25 25 25 25 24 23 23 23 23 24 24 24 24 23 22 23 23 22 22 21 22 22 23 22 23 22 22 22 23 23
24 23 23 24 24 25 25 26 26 26 26 26 26 26 27 28 28 27 25 25 25 26 26 26 26 26 26 26 25 25 25 25 24 24 24 24 25 25 25 25 25 26 26
26 26 26 26 26 26 27 28 28 27 27 27 27 28 29 30 29 28 27 27 27 27 28 28 28 28 27 28 28 27 27 27 26 25 26 26 27 28 28 28 28 27 27
28 28 29 28 28 28 29 30 31 30 29 29 29 30 30 31 31 30 28 28 28 29 30 30 30 30 30 29 29 29 28 27 27 27 27 27 27 29 29 29 29 29 29
31 32 32 31 31 31 31 31 32 32 32 31 31 31 32 33 32 31 30 30 30 30 31 32 32 32 32 31 31 31 29 29 29 28 28 29 29 30 30 30 30 31 31
32 32 32 33 33 33 32 33 33 33 33 33 33 33 33 33 33 32 32 33 34 34 34 34 33 33 33 32 32 32 32 31 30 30 30 30 30 31 31 32 32 33 32
33 33 33 33 33 33 34 34 35 35 35 35 36 36 36 35 34 34 33 34 35 35 35 36 35 35 34 34 34 34 33 33 32 31 31 31 31 32 33 34 34 34 34
35 35 35 35 35 35 36 36 36 37 37 38 39 39 38 37 37 35 35 36 37 37 38 38 37 36 36 36 36 36 36 35 34 33 33 33 33 34 35 35 36 36 36
36 36 36 36 36 37 37 37 38 38 39 39 40 40 39 39 38 37 36 37 38 39 39 38 37 36 35 37 38 37 37 36 36 35 36 35 35 35 36 36 36 37 37
36 36 37 37 37 38 38 38 39 39 39 39 40 40 39 39 38 37 37 38 39 39 39 37 37 36 37 37 37 38 38 37 37 37 37 36 36 36 36 37 37 37 37
36 37 38 38 39 39 39 39 39 39 39 40 40 40 39 39 39 39 38 38 38 38 38 38 37 37 38 38 37 37 37 38 38 38 37 37 37 38 38 38 38 38 38
37 37 38 39 40 40 40 40 40 40 40 40 40 39 39 38 39 40 39 38 37 38 38 39 38 37 37 36 37 37 38 38 38 39 39 39 39 39 39 39 39 39 38
35 36 37 38 38 39 39 40 40 40 39 38 38 39 39 38 38 38 39 39 39 38 37 37 38 37 37 36 36 37 37 38 39 39 40 39 39 39 39 39 39 38 38

GEFSMW_500_meanwind_222.txt.gz
Wind_Speed
8 9 10 10 10 10 10 10 10 9 9 8 7 6 6 5 4 3 3 2 2 2 1 2 2 2 2 2 3 3 5 5 5 6 7 7 8 8 8 8 8 9 9
8 8 8 9 10 10 10 10 9 9 9 8 7 6 5 5 4 3 4 3 2 2 3 2 3 3 2 2 3 4 5 7 6 7 7 8 8 8 9 9 8 9 10
9 8 8 8 8 9 10 10 10 9 9 8 8 7 6 5 4 4 4 3 3 3 4 4 4 4 4 4 4 5 5 6 7 7 7 8 8 8 9 9 9 10 11
10 9 8 8 7 8 9 10 10 9 9 9 8 8 7 6 5 4 4 4 4 4 5 4 4 4 4 5 5 6 7 7 7 8 8 8 8 8 9 10 11 11 11
12 11 9 8 8 9 9 9 10 9 9 9 9 8 7 7 7 5 5 5 5 5 5 5 6 5 5 6 6 7 8 9 9 9 9 9 9 9 10 11 12 12 12
14 13 11 10 10 10 10 9 10 10 11 10 10 9 8 8 7 7 6 6 6 7 6 7 7 7 7 7 8 9 9 10 10 10 11 11 11 11 11 12 12 12 13
16 15 13 12 11 11 11 10 10 10 10 10 10 10 9 9 9 8 8 8 8 8 8 8 8 9 9 10 10 10 11 11 11 11 12 12 13 12 12 12 12 12 13
17 16 15 14 14 13 13 12 11 11 11 11 11 11 11 11 11 10 11 11 10 10 10 10 10 10 11 12 11 11 11 12 13 13 13 13 13 13 13 14 14 14 14
19 18 17 17 17 16 15 14 13 13 13 13 13 12 12 12 13 13 13 13 13 13 12 12 12 12 12 13 13 12 13 13 13 13 13 13 14 14 14 15 15 16 16
20 20 20 19 19 18 18 17 15 15 14 15 15 15 15 15 16 16 15 15 15 15 15 14 14 14 14 15 15 14 14 15 15 15 15 15 15 15 16 16 17 17 17
21 23 22 21 19 18 18 17 17 17 16 16 17 17 17 17 18 18 18 17 18 18 17 16 15 15 16 16 16 16 16 16 17 16 16 16 17 17 17 17 17 18 18
23 24 22 21 21 21 21 19 19 19 19 18 18 19 19 19 20 20 20 19 20 20 20 18 17 18 18 18 19 19 18 18 18 18 18 18 19 19 19 19 19 19 19
23 24 24 23 23 23 22 22 21 21 21 21 20 20 21 21 22 22 22 22 23 23 22 20 19 20 20 20 21 21 20 20 20 20 20 21 20 21 21 21 22 22 22
25 25 26 26 26 25 24 25 24 23 23 23 23 23 23 23 24 24 24 25 25 25 24 23 22 23 23 22 22 23 23 23 23 23 23 23 23 23 23 24 24 24 24
28 27 28 28 28 27 26 26 27 26 26 26 25 25 26 27 26 26 26 27 28 27 25 25 26 26 25 25 25 26 26 26 26 26 25 26 26 26 26 26 26 26 26
30 29 30 30 30 29 28 28 28 28 28 28 28 28 27 28 28 28 28 28 29 28 27 27 26 27 27 28 28 28 28 29 29 28 28 28 28 29 29 28 28 28 28
30 31 31 31 31 31 30 30 31 30 30 30 30 30 30 29 29 29 29 30 30 29 29 29 30 29 28 29 29 30 31 31 31 31 30 30 30 31 30 29 29 29 29
32 32 31 32 32 33 33 33 32 33 32 32 32 33 33 31 31 31 32 32 32 32 32 32 32 30 30 31 32 32 33 33 34 33 33 32 32 32 32 31 30 30 30
34 34 34 33 34 34 34 35 35 36 34 33 33 33 33 33 34 34 34 34 34 34 34 34 32 32 31 32 33 34 34 34 34 34 34 34 34 34 33 33 32 31 31
36 37 36 34 35 35 35 36 36 36 36 35 35 35 35 36 36 36 35 36 36 35 35 34 34 34 33 33 34 36 35 35 36 35 36 36 36 37 36 34 33 33 33
36 36 36 35 35 36 37 37 37 37 37 37 37 37 37 38 38 38 37 37 38 38 37 36 37 36 35 35 35 36 36 37 37 37 37 37 37 37 36 35 34 34 33
37 36 37 37 37 38 38 38 38 38 38 39 39 38 39 39 39 39 39 38 37 39 38 37 37 37 36 36 37 37 38 39 38 38 38 37 37 37 36 36 35 34 34
37 37 36 36 37 38 39 39 39 40 40 40 40 40 40 39 39 40 39 40 39 38 39 37 37 36 37 38 38 38 39 39 39 39 39 38 37 37 36 36 36 35 35
36 36 36 36 37 38 39 39 40 40 40 40 40 41 40 40 40 40 40 41 40 39 39 37 37 38 39 39 39 39 38 39 39 40 40 40 39 38 37 37 37 37 37
35 35 36 37 37 38 39 40 40 40 41 41 41 41 42 42 42 41 41 41 41 40 39 38 38 38 39 39 39 39 39 40 40 40 40 40 39 39 39 39 39 39 39
35 36 37 38 38 38 38 39 39 40 41 41 41 42 42 42 43 42 42 41 41 41 39 39 39 39 39 40 40 40 40 41 41 40 39 38 38 38 38 37 37 38 38

GEFSMW_500_meanwind_228.txt.gz
Wind_Speed
9 9 9 9 9 9 9 9 9 9 9 8 8 8 7 7 6 6 5 4 4 3 3 3 3 3 3 3 4 4 5 6 6 6 6 6 7 7 8 8 9 9 9
7 8 7 7 8 7 7 8 8 8 7 7 7 7 7 6 6 5 4 3 3 2 1 1 1 2 2 3 3 4 5 6 6 7 7 7 7 9 10 10 10 10 9
7 6 6 6 7 6 6 6 6 7 6 5 5 5 5 5 5 4 3 2 1 1 1 1 2 2 3 4 3 4 5 5 6 7 8 8 8 9 10 11 11 11 12
7 7 5 5 5 5 5 5 5 5 5 4 3 3 3 4 3 3 2 1 1 1 2 2 3 3 4 5 5 4 5 6 7 7 8 8 9 9 9 11 11 12 13
9 8 6 5 5 5 5 5 5 4 4 3 2 1 2 2 2 2 2 2 2 3 3 4 4 5 5 6 7 6 6 6 7 8 8 8 9 9 10 11 11 12 13
11 9 8 8 8 7 6 6 6 5 4 3 3 3 3 2 2 2 3 3 3 4 4 4 5 6 6 6 7 7 7 7 8 9 10 10 10 10 11 12 13 13 13
12 12 11 11 10 8 7 7 6 5 5 4 4 4 4 3 3 3 4 4 4 5 5 6 7 7 7 8 8 9 9 9 10 10 11 11 11 12 12 12 13 14 14
15 14 13 12 11 10 9 9 7 7 7 6 6 5 6 6 6 6 5 5 5 6 6 7 8 9 9 8 9 10 10 10 11 12 12 12 12 12 12 12 13 14 14
16 14 14 13 12 11 10 10 10 9 9 9 9 8 8 8 7 7 7 7 7 7 8 8 8 9 10 10 10 10 11 12 12 12 13 13 13 11 11 12 12 14 14
17 16 14 15 15 13 12 12 12 12 12 12 12 11 11 10 10 9 9 10 10 10 10 10 10 11 12 12 12 12 13 13 14 13 13 14 14 14 13 13 14 14 15
18 18 17 15 16 16 16 15 14 15 15 15 15 15 14 14 13 13 12 12 13 13 13 13 13 14 14 15 15 16 16 16 15 16 16 16 16 16 16 16 16 16 16
22 21 20 18 18 19 18 17 17 17 18 18 18 18 17 17 16 15 15 15 15 15 15 16 16 17 17 17 18 19 18 18 17 17 17 17 18 18 18 18 18 18 18
24 23 22 20 20 20 20 20 19 20 20 20 19 19 19 18 17 17 17 17 18 18 18 18 19 20 20 19 19 20 20 20 20 19 19 19 19 19 19 19 19 19 19
26 25 24 24 23 21 21 22 21 21 22 22 21 22 21 20 20 20 19 20 20 21 21 21 21 22 22 21 21 22 22 21 22 22 22 22 21 21 21 22 22 22 22
28 28 27 26 25 24 23 23 24 23 23 24 24 23 23 23 22 22 22 22 22 23 23 23 23 23 23 23 23 24 24 24 24 25 25 25 25 25 24 24 24 25 24
30 30 29 28 27 27 25 25 26 26 26 26 25 24 24 25 24 25 25 25 25 25 26 26 26 25 25 25 26 26 26 26 26 26 26 26 27 27 27 26 26 26 26
31 31 32 32 30 30 29 28 27 28 27 27 27 28 27 27 28 28 28 29 29 28 27 27 28 28 27 27 27 27 28 29 28 28 28 28 28 29 29 29 29 29 29
34 33 32 32 31 31 31 30 29 28 28 29 30 30 31 31 31 31 31 31 31 30 30 29 31 30 29 29 29 29 30 30 29 29 29 29 30 31 31 32 32 31 31
36 35 34 32 32 32 31 31 30 29 29 30 30 31 32 32 32 32 32 32 32 32 32 33 32 30 29 30 30 30 30 31 30 30 30 31 32 33 33 33 33 32 31
36 36 34 33 34 33 33 31 31 31 31 31 31 32 32 32 33 33 33 33 33 34 35 35 33 32 31 31 31 31 32 32 32 31 31 31 32 33 34 34 34 32 32
38 37 36 36 36 35 34 33 33 33 33 32 33 33 34 34 35 35 35 35 34 35 35 34 34 33 33 33 32 32 33 33 33 33 33 33 34 34 35 34 34 33 33
37 37 36 35 36 35 35 35 35 35 34 34 35 35 36 36 36 36 36 35 35 35 35 35 35 34 34 34 34 34 35 34 34 34 34 35 35 36 36 36 35 35 35
36 36 37 35 36 35 35 36 36 35 35 36 36 36 37 37 37 37 37 36 36 36 35 35 36 36 35 35 35 36 36 36 36 36 36 36 36 36 36 36 36 36 37
35 36 36 35 34 35 35 36 36 37 36 37 37 37 37 37 37 38 37 37 37 37 38 37 36 36 36 36 37 37 37 37 37 36 37 36 36 36 36 36 37 38 38
35 36 36 36 34 34 35 35 36 36 37 37 37 37 37 37 37 37 38 38 37 37 37 37 36 36 36 37 37 37 37 37 37 37 37 37 37 38 38 38 39 39 38
35 35 36 35 35 34 35 36 36 36 37 37 37 37 37 37 37 37 37 38 37 37 36 36 36 36 36 36 36 37 37 38 38 38 38 38 39 39 39 40 39 39 38

GEFSMW_500_meanwind_234.txt.gz
Wind_Speed
6 6 6 6 7 6 4 5 5 5 5 5 5 4 4 4 4 4 4 4 4 4 4 4 3 3 4 4 4 5 5 6 6 6 7 7 7 8 8 8 8 9 9
5 6 6 5 5 5 4 3 3 3 3 3 3 3 3 4 4 3 3 3 3 4 4 4 4 4 4 5 5 6 7 7 7 8 9 9 10 10 10 10 10 11 11
5 6 5 5 4 5 4 3 2 2 1 1 1 1 1 3 3 2 2 3 4 4 4 4 4 5 5 6 6 7 7 8 9 9 10 11 11 11 12 13 13 12 12
7 7 6 5 5 6 5 4 3 2 2 1 1 1 2 2 2 3 3 4 4 4 5 5 5 6 7 7 8 8 8 9 9 9 9 10 11 11 13 13 14 14 13
9 8 7 7 7 7 6 6 4 4 4 4 3 3 4 4 4 4 4 5 6 6 7 7 8 8 8 9 9 10 10 10 11 11 11 11 11 12 13 14 15 15 15
9 8 7 7 8 8 7 7 6 5 5 5 5 5 6 5 5 5 6 7 7 8 8 9 9 9 10 11 11 11 11 11 12 12 12 13 13 14 14 14 15 16 16
10 9 8 8 9 9 9 9 8 7 7 6 7 7 7 7 7 7 8 8 8 9 10 10 10 11 12 13 13 13 13 13 13 13 14 14 15 15 15 15 16 16 17
11 10 10 10 10 10 11 10 9 9 10 9 9 9 9 9 9 9 8 9 10 10 11 11 11 12 13 13 14 14 15 15 15 15 15 15 15 16 17 17 17 17 17
13 12 11 10 11 12 12 12 12 12 11 11 12 11 11 11 11 11 11 10 11 12 13 14 14 14 14 14 14 15 15 16 17 17 17 17 17 18 19 19 18 18 18
14 13 14 13 13 13 13 13 14 13 13 14 14 13 12 12 12 13 14 14 15 15 15 16 16 16 16 16 17 17 18 18 19 18 18 19 20 20 20 20 20 20 20
16 16 16 16 15 14 14 14 15 15 15 15 16 16 15 14 14 15 15 16 17 17 17 17 18 18 18 18 19 20 20 20 21 20 20 21 21 21 21 21 21 21 21
18 17 18 18 18 17 17 18 17 17 16 16 17 18 17 17 17 17 17 18 18 19 19 18 19 19 19 20 20 21 21 21 21 22 22 22 23 23 23 23 22 22 22
22 20 20 20 21 20 21 21 20 19 19 19 19 19 20 20 19 19 19 20 20 21 21 20 20 20 21 21 22 22 22 22 22 23 23 24 24 24 24 24 24 24 24
25 24 23 22 22 22 22 23 22 21 21 21 21 20 21 21 21 22 22 22 22 21 22 21 22 22 23 23 23 24 24 23 24 25 25 25 26 26 26 26 26 26 26
27 27 26 24 23 23 24 24 24 23 23 23 22 22 22 23 23 23 24 24 24 23 23 24 25 25 25 25 25 25 25 25 26 27 27 28 28 28 29 29 29 29 29
29 29 29 27 26 26 25 26 26 25 25 25 24 24 25 25 26 26 26 27 26 26 26 27 27 27 27 27 27 28 27 27 28 29 30 30 31 31 31 32 32 32 32
30 31 31 31 30 29 29 29 29 28 27 27 27 28 28 28 28 28 29 29 29 29 29 30 30 30 30 30 30 31 30 30 30 31 32 32 33 34 34 34 35 35 35
33 33 33 32 32 32 32 31 31 31 30 30 30 31 32 31 30 30 30 30 30 31 31 31 32 33 32 33 33 33 33 33 33 33 34 35 36 36 36 36 36 36 36
35 35 35 34 34 34 33 33 32 32 32 32 33 33 33 32 31 30 29 30 32 32 32 33 34 34 35 35 35 36 36 36 35 35 35 36 37 37 36 37 38 37 36
37 37 36 36 35 35 35 35 34 35 34 35 35 34 34 33 31 31 31 32 32 33 33 34 34 34 34 35 36 37 37 37 37 37 37 36 37 36 36 36 37 36 35
38 37 37 36 36 35 35 35 35 35 35 34 34 34 33 31 31 31 32 33 34 34 34 34 35 35 35 36 38 39 39 38 38 37 37 36 36 36 36 37 37 36 36
36 36 35 36 36 36 35 35 36 36 35 34 34 33 33 32 32 32 33 34 34 35 35 36 37 37 37 38 39 39 39 38 36 36 37 36 36 36 37 37 38 38 38
36 36 35 35 36 36 36 36 36 35 35 35 34 35 34 34 34 34 34 35 35 35 37 37 38 39 39 39 39 39 38 38 38 37 38 38 37 37 38 38 38 39 39
36 36 35 35 35 36 36 36 36 36 36 35 35 35 35 35 35 35 36 37 37 37 37 38 39 39 40 40 40 39 39 39 39 38 38 38 38 38 38 39 39 39 39
36 36 36 36 36 36 36 36 37 36 35 35 36 36 36 36 37 38 38 39 39 39 39 39 39 39 39 39 39 39 39 38 37 37 37 38 39 39 39 39 39 40 40
36 35 35 36 37 36 35 35 34 34 34 34 34 36 37 37 38 39 39 40 41 40 40 40 39 39 39 38 39 38 38 38 37 37 37 37 38 39 40 40 40 40 41

GEFSMW_500_meanwind_240.txt.gz
Wind_Speed
7 6 6 5 5 4 3 4 3 2 2 2 2 2 3 3 4 4 4 4 5 5 5 5 5 4 4 4 4 5 5 5 5 5 6 6 6 6 6 7 7 8 9
6 6 6 6 5 5 4 3 3 2 1 1 0 0 1 2 3 3 3 4 4 5 5 5 5 5 5 5 5 5 5 5 5 5 6 7 7 7 8 8 8 9 10
6 6 6 6 6 5 5 4 3 3 2 2 2 2 2 3 3 3 4 4 5 5 6 6 6 6 6 6 6 6 6 6 6 7 7 8 8 9 9 9 9 10 10
7 7 7 6 6 6 6 5 5 5 5 4 4 4 4 4 4 4 5 5 6 6 6 7 7 7 7 7 7 8 8 8 8 9 9 9 10 10 10 11 11 12 11
8 8 7 7 8 8 7 7 6 6 6 6 6 5 5 6 6 6 6 6 7 7 7 7 7 8 8 8 9 10 10 10 10 10 11 11 11 12 12 12 13 13 13
11 10 9 9 9 9 9 8 8 8 8 8 8 8 7 8 8 8 8 8 8 8 8 9 9 9 10 10 10 11 11 12 12 12 13 13 13 13 14 14 14 15 15
12 12 11 12 11 11 10 10 9 9 9 9 10 9 9 9 10 10 10 10 10 10 10 11 11 12 12 12 12 13 13 13 14 14 15 15 15 15 16 16 16 16 17
14 14 13 13 12 12 12 11 11 11 11 11 11 11 12 11 12 12 12 12 12 12 12 13 13 13 14 14 14 15 15 16 16 16 16 17 17 17 17 17 18 18 18
16 16 15 15 14 14 14 13 12 12 12 13 13 12 13 13 14 14 14 13 13 13 14 14 15 16 16 17 18 18 18 18 18 18 18 18 18 18 19 19 19 19 19
18 18 17 17 17 16 15 14 14 13 14 15 15 14 14 14 15 15 14 15 15 15 15 16 17 17 18 19 19 19 20 20 20 20 21 21 20 20 20 20 20 20 21
20 20 19 18 18 18 17 16 16 15 16 16 16 16 16 16 15 15 16 17 17 17 18 18 18 19 20 20 20 20 21 22 22 21 22 22 21 22 22 21 21 21 21
22 22 22 21 20 20 19 18 18 18 18 18 18 18 18 18 18 17 18 19 19 19 20 20 20 20 21 21 21 21 21 21 22 22 23 23 23 23 23 23 23 23 23
24 24 24 24 23 22 21 20 20 20 20 20 20 20 20 20 20 19 20 21 21 22 22 22 23 22 22 23 23 23 23 23 23 23 23 23 24 24 25 25 25 26 26
26 26 26 25 25 23 23 22 22 22 22 22 22 22 22 22 22 22 23 23 24 24 24 25 25 25 25 25 26 25 25 25 25 24 25 25 26 27 27 27 27 28 28
27 28 28 28 27 26 25 24 24 23 23 24 24 24 24 24 24 24 25 26 27 27 27 27 28 28 27 27 28 29 29 28 27 27 27 27 28 29 29 30 30 30 30
29 29 30 30 30 28 27 26 26 26 26 26 26 27 27 26 27 27 27 28 29 30 31 31 31 30 30 30 29 30 31 32 31 30 30 30 30 31 32 32 33 33 33
30 30 30 31 31 30 30 29 29 28 29 29 29 29 28 28 29 29 30 31 31 32 32 33 33 33 33 32 32 33 33 33 32 32 33 33 34 34 34 35 35 36 36
32 32 32 32 33 32 32 31 31 31 31 31 31 31 31 30 31 31 32 32 32 33 34 35 35 35 35 35 34 34 34 34 34 34 34 35 36 36 37 37 37 38 37
33 33 34 34 34 34 34 33 33 33 33 33 33 33 33 34 34 33 33 33 33 34 34 35 35 35 36 36 35 34 35 35 35 35 35 36 36 37 38 39 39 39 39
34 34 34 35 35 35 34 35 35 35 35 34 34 35 35 35 35 35 35 34 35 34 35 35 36 36 35 35 35 35 35 36 36 36 36 37 38 39 39 40 41 41 39
35 35 34 34 35 35 35 36 37 37 36 36 36 36 37 37 37 37 37 36 36 37 36 36 36 36 35 34 35 35 36 37 37 38 38 38 39 39 40 41 40 40 39
35 35 35 35 35 35 36 37 37 37 37 38 37 37 38 39 39 39 39 39 38 38 37 36 35 35 35 35 36 38 38 38 39 39 39 39 40 40 41 40 41 41 40
35 36 36 36 36 36 37 38 38 38 39 39 39 38 38 39 39 39 39 39 39 38 37 37 37 36 35 36 37 38 39 39 40 40 40 40 39 39 39 40 40 40 40
34 35 35 35 36 36 37 38 38 38 39 39 39 38 38 39 39 39 38 38 38 37 35 36 36 36 37 38 38 38 39 40 40 40 40 40 40 41 41 40 40 40 39
34 34 34 35 35 36 37 37 38 38 38 38 38 38 39 38 38 39 39 38 37 36 36 36 37 37 37 38 39 39 39 39 40 41 41 41 41 41 41 42 42 41 40
34 34 34 34 35 36 36 37 37 37 38 38 38 38 38 38 38 37 38 38 37 37 37 37 37 38 38 38 38 38 38 39 39 39 40 41 41 41 41 41 40 39 38

GEFSMW_500_meanwind_246.txt.gz
Wind_Speed
9 9 9 9 9 9 8 8 7 6 6 5 5 3 3 2 2 1 1 2 3 3 3 4 4 3 3 3 3 3 4 5 5 5 5 5 5 5 5 5 6 6 7
9 9 10 10 9 8 8 7 7 6 6 5 4 4 3 2 1 1 1 2 2 3 4 4 4 3 3 3 4 4 4 6 6 6 6 5 5 6 6 6 7 7 8
10 9 9 9 9 8 7 7 7 7 7 6 5 4 4 4 3 3 3 3 2 2 3 4 5 5 4 4 5 5 6 7 7 7 6 7 7 8 8 8 9 9 9
11 11 10 10 9 8 8 8 8 8 7 7 6 6 6 5 4 4 5 5 4 5 5 5 6 6 6 6 6 7 8 8 9 8 8 9 9 10 10 10 10 10 10
13 12 11 11 10 10 10 9 9 9 8 8 7 7 7 7 6 6 6 6 6 6 7 7 7 7 7 7 8 8 8 9 10 10 10 10 10 11 11 12 12 12 13
16 15 14 13 12 12 12 12 11 11 10 10 9 9 8 8 8 8 8 8 8 8 8 8 8 9 9 9 9 10 10 11 11 11 12 12 13 13 14 13 14 14 15
18 18 16 15 14 14 14 13 12 12 11 11 10 10 10 10 10 10 10 10 10 10 10 10 10 10 11 11 12 12 12 13 13 14 14 14 15 15 15 15 16 17 17
19 19 18 16 15 15 14 14 14 13 12 12 12 11 11 11 11 11 12 12 12 12 12 12 12 12 13 14 14 14 14 14 15 15 16 17 17 18 18 18 18 18 19
19 21 20 18 17 16 16 15 15 15 14 14 13 13 13 12 12 12 12 13 13 13 13 14 14 14 15 16 16 16 16 16 17 18 18 19 20 20 20 20 19 19 19
20 21 21 19 19 18 17 17 17 16 16 15 15 15 15 15 15 14 14 14 15 16 16 16 17 17 17 17 18 17 18 19 19 20 21 21 21 21 21 21 20 20 21
21 22 22 21 20 20 19 18 18 18 18 18 18 18 17 17 17 17 17 17 17 18 19 19 19 19 19 19 20 19 19 20 21 22 23 23 23 23 23 23 23 23 22
23 22 23 24 22 22 21 21 20 20 20 20 20 20 19 19 19 19 19 19 19 20 20 20 20 21 21 22 22 21 22 23 24 24 25 25 25 25 24 25 24 24 24
26 25 25 25 24 24 24 23 23 22 22 22 22 21 21 21 21 21 21 21 21 22 21 21 22 23 23 23 24 25 25 25 26 26 27 27 27 26 26 26 26 25 25
28 28 28 26 26 26 26 26 25 25 24 24 24 23 23 23 23 23 23 23 23 23 23 24 24 25 25 25 26 27 27 27 28 28 29 29 28 28 29 27 27 27 28
29 29 29 29 29 29 28 28 28 28 27 27 27 26 26 26 26 25 25 25 26 26 26 26 26 27 28 28 28 29 29 30 30 30 31 31 30 30 29 29 29 30 31
31 31 30 30 30 31 31 30 30 30 30 29 29 29 28 28 28 28 27 27 28 28 28 28 28 29 30 30 31 32 32 32 32 32 33 33 33 32 32 32 32 32 32
32 32 32 31 31 32 33 32 32 32 32 32 32 31 30 30 29 29 30 30 30 29 30 30 30 31 31 31 32 33 33 33 33 34 35 35 35 34 34 34 35 35 35
34 33 33 33 33 34 34 34 34 35 34 34 34 34 33 32 32 32 31 31 32 31 31 31 31 31 31 32 32 33 34 35 36 36 36 37 37 36 35 36 36 37 37
34 34 34 35 35 36 36 37 37 36 36 36 36 35 34 34 34 33 33 34 33 33 33 33 33 33 33 34 34 35 35 35 36 37 37 37 37 37 36 37 37 38 38
35 35 35 35 36 36 37 38 38 38 37 37 36 35 34 35 35 34 35 35 35 35 35 35 36 36 35 35 35 35 36 36 36 36 36 36 36 36 37 37 36 37 37
35 35 35 35 36 37 38 38 38 38 38 37 36 36 36 36 36 36 36 36 37 37 37 37 37 37 36 35 35 36 37 37 36 36 35 36 36 36 36 36 37 37 38
35 36 36 36 37 37 38 38 38 38 38 38 38 38 38 38 38 38 38 38 38 38 38 38 38 37 36 36 37 37 37 37 37 37 36 36 36 37 37 37 38 38 39
37 37 37 38 38 38 39 39 38 38 38 39 39 40 40 40 40 40 39 39 39 40 40 39 39 39 38 38 38 39 38 38 38 37 36 36 36 37 37 38 39 39 40
37 38 38 38 38 39 39 40 40 40 39 40 41 41 41 41 41 41 41 41 41 41 41 40 40 40 40 39 39 38 37 37 37 37 37 37 38 38 38 39 39 39 40
36 37 37 38 38 38 38 39 39 39 39 39 40 41 41 42 41 41 41 41 41 41 41 40 39 39 39 38 38 37 37 38 37 37 38 39 39 39 39 39 39 39 38
36 37 37 37 37 38 37 37 37 38 38 38 39 39 38 39 40 40 40 39 39 40 40 39 40 40 39 39 39 38 39 39 38 38 38 38 38 38 38 38 38 38 39